Date,TemperatureHighF,TemperatureAvgF,TemperatureLowF,DewpointHighF,DewpointAvgF,DewpointLowF,HumidityHigh,HumidityAvg,HumidityLow,PressureMaxIn,PressureMinIn,WindSpeedMaxMPH,WindSpeedAvgMPH,GustSpeedMaxMPH,PrecipitationSumIn
2013-2-4,42,38,29,28,26,20,69,62,53,28.93,28.35,22,9,22,0.35
2013-2-5,55,43,33,42,33,26,81,68,54,29.11,28.31,29,6,29,0.00
2013-2-6,54,46,40,36,30,22,75,55,32,29.04,28.36,17,5,17,0.00
2013-2-7,41,37,33,36,32,25,100,86,55,29.11,28.47,18,6,18,0.20
2013-2-8,54,41,33,48,36,27,100,84,58,28.68,28.34,29,10,29,0.09
2013-2-9,50,39,32,27,20,16,69,47,27,29.66,28.45,23,6,23,0.00
2013-2-10,50,39,31,38,24,18,96,57,40,29.48,28.58,14,3,14,0.12
2013-2-11,55,49,38,54,45,30,100,89,47,28.98,28.34,29,11,29,0.06
2013-2-12,57,49,42,41,29,25,89,48,34,30.09,28.34,22,8,22,0.10
2013-2-13,44,41,37,43,39,32,99,92,78,29.74,28.08,22,5,22,0.31
2013-2-14,50,41,32,35,31,27,82,70,51,30.86,28.25,17,5,17,0.00
2013-2-15,56,44,34,41,35,30,88,71,49,29.77,28.34,22,7,22,0.01
2013-2-16,38,33,26,31,23,14,76,65,55,28.59,28.26,25,10,25,0.00
2013-2-17,31,26,19,17,9,6,70,51,36,28.82,28.31,32,10,32,0.00
2013-2-18,50,36,21,28,20,8,68,52,39,29.51,28.56,20,6,20,0.00
2013-2-19,46,38,34,42,30,18,100,74,43,28.98,28.29,30,12,30,0.06
2013-2-20,46,37,30,19,14,10,54,40,27,29.44,28.38,23,8,23,0.00
2013-2-21,50,39,25,22,18,13,63,45,32,31.37,28.50,12,3,12,0.00
2013-2-22,41,33,29,33,31,21,100,93,45,29.66,28.52,8,2,8,0.15
2013-2-23,48,39,32,47,39,32,100,99,93,29.02,28.23,10,2,10,0.22
2013-2-24,54,47,38,46,34,23,100,65,39,28.58,28.22,23,7,23,0.00
2013-2-25,40,34,29,28,25,23,82,69,53,28.76,28.46,10,4,10,0.00
2013-2-26,37,34,30,37,32,23,100,92,69,28.60,28.02,26,10,26,0.78
2013-2-27,52,43,35,42,38,32,100,83,63,28.51,28.03,20,7,20,0.06
2013-2-28,43,39,36,34,30,27,80,68,55,28.35,28.10,22,10,22,0.00